sat.trackr.live / text

‹ back to catalog

QIANFAN-54

NORAD 62255 · 2024-232U

PAYLOAD ACTIVE UNKNOWN

§ Identity

Operator
Country
PRC
Launch date
2024-12-05
Launch site
TAISC
Launch vehicle
Mass (kg)
RCS (m²)

External: N2YO · Heavens-Above · Gunter

§ Orbital elements

Epoch: 2026-05-25T03:12:20.194848Z

Period
106.59 min
Inclination
89.0094°
Eccentricity
0.0003837
Mean motion
13.51008000 rev/d
Perigee alt
1,065.7 km
Apogee alt
1,071.4 km
Semi-major
7,446.7 km
B*
1.2757e-4
RAAN
24.4632°
Arg perigee
102.1538°
Mean anomaly
258.0043°
Rev number
12,147

§ Raw data

QIANFAN-541 62255U 24232U   26145.13356707  .00000094  00000+0  12757-3 0  99902 62255  89.0094  24.4632 0003837 102.1538 258.0043 13.51008000121479

JSON: /api/v1/satellites/62255 · /tle

For live sub-satellite position, see the globe view (requires WebGL).

§ Visibility from observer

Set your observer location to see the next 7 days of passes ≥ 10°. The values pass through the URL so the page stays shareable.

No JS? Fill the form by hand. The geolocation button needs JavaScript.